Burbank, CA

12:48 AM PST on January 18, 2018 (GMT -0800)
Burbank-Glendale-Pasadena

Weather History for KBUR - February, 2012

Change the Weather History Date:

Tuesday, February 28, 2012

  Actual Average Record
Temperature  
Mean Temperature 47 °F 57 °F  
Max Temperature 56 °F 69 °F 87 °F (1967)
Min Temperature 37 °F 45 °F 32 °F (1951)
Degree Days  
Heating Degree Days 18 8  
Month to date heating degree days 245 258  
Since 1 July heating degree days 1069 1141  
Cooling Degree Days 0 0  
Month to date cooling degree days 0 4  
Year to date cooling degree days 8 6  
Moisture  
Dew Point 34 °F    
Average Humidity 62    
Maximum Humidity 82    
Minimum Humidity 41    
Precipitation  
Precipitation 0.00 in 0.14 in 3.00 in (2014)
Month to date precipitation 0.06 4.48  
Year to date precipitation 0.91 8.01  
Since 1 July precipitation 4.20  
Sea Level Pressure  
Sea Level Pressure 30.16 in    
Wind  
Wind Speed 4 mph (SSE)    
Max Wind Speed 14 mph    
Max Gust Speed 22 mph    
Visibility 10 miles    
Events      
T = Trace of Precipitation, MM = Missing Value Source: NWS Daily Summary

Daily Weather History Graph

Daily Weather History Graph

Search for Another Location

Airport or City:

Trip Planner

Search our weather history database for the weather conditions in past years. The results will help you decide how hot, cold, wet, or windy it might be!

Date:

Astronomy

Feb. 28, 2012 Rise Set
Actual Time 6:24 AM PST 5:48 PM PST
Civil Twilight 5:58 AM PST 6:13 PM PST
Nautical Twilight 5:29 AM PST 6:42 PM PST
Astronomical Twilight 5:00 AM PST 7:11 PM PST
Moon 9:54 AM PST (2/28) No Moon Set
Length of Visible Light 12h 14m
Length of Day
11h 24m
Waxing Crescent, 39% of the Moon is Illuminated
Feb 28
Waxing Crescent
Feb 29
First Quarter
Mar 8
Full
Mar 14
Last Quarter
Mar 22
New

Hourly Weather History & Observations

Time (PST) Temp. Windchill Dew Point Humidity Pressure Visibility Wind Dir Wind Speed Gust Speed Precip Events Conditions
12:53 AM 44.1 °F 42.5 °F 33.1 °F 65% 29.94 in 10.0 mi NNW 3.5 mph - N/A   Overcast
1:53 AM 42.1 °F - 33.1 °F 70% 29.96 in 10.0 mi Calm Calm - N/A   Clear
2:53 AM 39.9 °F 37.8 °F 33.1 °F 77% 29.98 in 10.0 mi North 3.5 mph - N/A   Clear
3:53 AM 39.0 °F - 32.0 °F 76% 30.02 in 10.0 mi Calm Calm - N/A   Clear
4:53 AM 39.0 °F - 32.0 °F 76% 30.06 in 10.0 mi Calm Calm - N/A   Clear
5:53 AM 37.9 °F 35.5 °F 32.0 °F 79% 30.10 in 10.0 mi NNW 3.5 mph - N/A   Partly Cloudy
6:53 AM 39.0 °F - 33.1 °F 79% 30.13 in 10.0 mi Calm Calm - N/A   Scattered Clouds
7:53 AM 42.1 °F - 34.0 °F 73% 30.16 in 10.0 mi Calm Calm - N/A   Clear
8:53 AM 46.0 °F - 34.0 °F 63% 30.18 in 10.0 mi Calm Calm - N/A   Clear
9:53 AM 50.0 °F - 34.0 °F 54% 30.19 in 10.0 mi SE 8.1 mph - N/A   Clear
10:53 AM 52.0 °F - 33.1 °F 49% 30.21 in 10.0 mi South 10.4 mph 18.4 mph N/A   Clear
11:53 AM 54.0 °F - 32.0 °F 43% 30.20 in 10.0 mi ESE 9.2 mph - N/A   Scattered Clouds
12:53 PM 54.0 °F - 30.9 °F 41% 30.19 in 10.0 mi SSE 11.5 mph 18.4 mph N/A   Mostly Cloudy
1:53 PM 55.0 °F - 32.0 °F 42% 30.18 in 10.0 mi ESE 9.2 mph 21.9 mph N/A   Scattered Clouds
2:53 PM 54.0 °F - 36.0 °F 51% 30.18 in 10.0 mi South 10.4 mph - N/A   Scattered Clouds
3:53 PM 54.0 °F - 36.0 °F 51% 30.19 in 10.0 mi SSW 5.8 mph - N/A   Scattered Clouds
4:53 PM 52.0 °F - 36.0 °F 54% 30.19 in 10.0 mi South 9.2 mph - N/A   Clear
5:53 PM 50.0 °F - 35.1 °F 57% 30.21 in 10.0 mi South 6.9 mph - N/A   Clear
6:53 PM 48.9 °F - 34.0 °F 56% 30.22 in 10.0 mi South 3.5 mph - N/A   Clear
7:53 PM 48.9 °F - 33.1 °F 54% 30.25 in 10.0 mi Calm Calm - N/A   Clear
8:53 PM 46.9 °F - 35.1 °F 63% 30.26 in 10.0 mi Calm Calm - N/A   Partly Cloudy
9:53 PM 48.0 °F - 34.0 °F 58% 30.26 in 10.0 mi Calm Calm - N/A   Clear
10:53 PM 46.0 °F - 35.1 °F 66% 30.25 in 10.0 mi Calm Calm - N/A   Clear
11:53 PM 45.0 °F - 35.1 °F 68% 30.25 in 10.0 mi Calm Calm - N/A   Clear